www.pogodaiklimat.ru

Погода и климат >> Архив погоды >> Латвия >> Алуксне


ПОГОДА в Алуксне

  • Прогноз погоды в Алуксне
  • Монитор погоды в Алуксне

АРХИВ ПОГОДЫ в Алуксне

Время (UTC), дата Ветер
(напр.,м/с)
 
Видим.   Явления Облачность Т
(С)
Тd
(С)
f
(%)
Тe
(С)
Тes
(С)
Комфортность P
(гПа)
Po
(гПа)
Тmin
(С)
Tmax
(С)
R
(мм)
R24
(мм)
S
(см)
00 14.09 З 3 н/о н/о +8.3 +7.7 96 +5 +5 1041.7 992.7
03 14.09 З 2 н/о н/о +7.8 +7.0 95 +6 +6 1042.7 993.6
06 14.09 З 2 н/о н/о +10.2 +7.4 83 +9 +9 1042.9 994.2
09 14.09 З 2 н/о н/о +12.1 +9.5 84 +11 +11 1043.0 994.6
12 14.09 ЮЗ 1 н/о н/о +8.4 +6.9 90 +8 +8 1045.4 996.3
15 14.09 З 3 н/о н/о +9.5 +5.0 73 +7 +7 1043.6 994.7
18 14.09 З 3 н/о н/о +8.2 +6.3 88 +5 +5 1044.3 995.2
21 14.09 З 1 н/о н/о +7.2 +5.9 91 +6 +6 1044.6 995.3
00 15.09 ЮЗ 1 н/о н/о +6.2 +5.6 96 +5 +5 1043.5 994.0
03 15.09 Ю 3 н/о н/о +7.3 +6.7 96 +4 +4 1040.9 991.8
06 15.09 Ю 4 н/о н/о +7.8 +7.2 96 +4 +4 1036.8 988.0
09 15.09 Ю 5 н/о н/о +9.5 +8.9 96 +6 +6 1031.2 982.9
12 15.09 ЮЗ 4 н/о н/о +10.0 +9.1 94 +7 +7 1026.2 978.3
15 15.09 ЮЗ 5 н/о н/о +10.5 +9.0 90 +7 +7 1022.6 974.9
18 15.09 З 3 н/о н/о +9.4 +8.7 95 +7 +7 1022.3 974.4
21 15.09 З 4 н/о н/о +9.8 +9.2 96 +7 +7 1021.1 973.4
00 16.09 З 3 н/о н/о +9.1 +8.2 94 +7 +7 1021.0 973.1
03 16.09 З 3 н/о н/о +8.6 +7.8 95 +6 +6 1020.2 972.3
06 16.09 ЮЗ 2 н/о н/о +9.3 +8.6 95 +7 +7 1019.6 971.9
09 16.09 З 4 н/о н/о +12.0 +9.7 86 +10 +10 1019.5 972.2
12 16.09 З 8 н/о н/о +13.1 +7.5 69 +10 +10 1019.9 972.7
15 16.09 З 7 н/о н/о +11.5 +6.5 71 +8 +8 1021.2 973.7
18 16.09 З 4 н/о н/о +8.7 +7.8 94 +5 +5 1022.7 974.7
21 16.09 З 3 н/о н/о +7.8 +7.1 95 +5 +5 1022.5 974.4
00 17.09 З 3 н/о н/о +7.9 +7.3 96 +5 +5 1022.0 973.9
03 17.09 З 3 н/о н/о +7.8 +7.1 95 +5 +5 1022.0 973.9
06 17.09 З 3 н/о н/о +7.7 +6.5 92 +5 +5 1022.9 974.7
09 17.09 СЗ 3 н/о н/о +9.8 +5.8 76 +8 +8 1022.9 975.0
12 17.09 З 2 н/о н/о +9.9 +7.0 82 +8 +8 1022.3 974.5
15 17.09 З 1 н/о н/о +10.1 +6.4 78 +10 +10 1021.7 973.9
18 17.09 ЮЗ 1 н/о н/о +5.9 +5.2 95 +5 +5 1022.2 973.8
21 17.09 штиль 0 н/о н/о +3.9 +3.8 99 +3 +3 1022.2 973.3
00 18.09 З 1 н/о н/о +3.0 +2.9 99 +1 +1 1021.9 973.0
03 18.09 З 2 н/о н/о +1.5 +1.4 99 -2 -2 1022.9 973.6
06 18.09 СЗ 2 н/о н/о +4.6 +4.0 96 +2 +2 1024.2 975.4
09 18.09 СЗ 2 н/о н/о +9.6 +5.0 73 +8 +8 1025.1 977.2
12 18.09 СЗ 4 н/о н/о +10.1 +5.3 72 +8 +8 1027.0 979.0
15 18.09 З 1 н/о н/о +8.6 +7.2 91 +8 +8 1029.4 981.0
18 18.09 СЗ 2 н/о н/о +7.2 +6.4 95 +5 +5 1031.8 983.1
21 18.09 СЗ 2 н/о н/о +6.4 +5.4 93 +4 +4 1033.6 984.7
00 19.09 СЗ 2 н/о н/о +4.4 +4.2 99 +1 +1 1035.2 985.9
03 19.09 З 2 н/о н/о +3.0 +3.0 100 -0 -0 1036.7 987.0
06 19.09 СЗ 3 н/о н/о +3.1 +3.0 99 -1 -1 1038.2 988.5
09 19.09 С 2 н/о н/о +8.1 +1.2 62 +7 +7 1038.8 989.9
12 19.09 СЗ 2 н/о н/о +8.5 +0.6 58 +7 +7 1039.3 990.4
15 19.09 СЗ 2 н/о н/о +9.4 +1.4 57 +8 +8 1039.3 990.6
18 19.09 штиль 0 н/о н/о +3.2 +2.6 96 +2 +2 1041.0 991.2
21 19.09 штиль 0 н/о н/о +2.3 +1.9 97 +1 +1 1041.2 991.2
00 20.09 СЗ 2 н/о н/о +3.9 +3.2 95 +1 +1 1041.2 991.5
03 20.09 СЗ 2 н/о н/о +4.1 +3.6 97 +1 +1 1041.3 991.7
06 20.09 СЗ 3 н/о н/о +4.2 +2.7 90 0 0 1042.5 992.8
09 20.09 СЗ 4 н/о н/о +7.7 +1.7 66 +5 +5 1043.4 994.2
12 20.09 СЗ 4 н/о н/о +9.0 -1.4 48 +7 +7 1043.1 994.2
15 20.09 З 2 н/о н/о +7.6 +0.1 59 +6 +6 1043.1 993.9
18 20.09 ЮЗ 1 н/о н/о +4.8 +1.9 81 +4 +4 1043.3 993.7

 

Местоположение метеостанции Алуксне (Латвия): широта 57.43 долгота 27.03 высота над уровнем моря 193 м.

В архиве по умолчанию представлена погода в Алуксне за последнюю неделю. Архивные данные за месяц целиком и за предыдущие месяцы, начиная с января 2011 года, Вы можете получить, выбрав интересующий диапазон дат из раскрывающегося списка и нажав кнопку "Ввод!".


*Определитесь, кто Вы:
робот инопланетянин человек

Внимание! Время в таблицах - всемирное. Для получения местного времени необходимо прибавить поправку, которая равна 2 ч.

Смотрите также архив погоды в соседних городах и на ближайших метеорологических станциях:

Погода в Гулбене (Латвия) (38 км)
Погода в Выру (Эстония) (47 км)
Погода в Валге (Эстония) (71 км)
Погода в Зозени (Латвия) (75 км)
Погода в Мадоне (Латвия) (80 км)
Погода в Пскове (Псковская область, Россия) (89 км)
Погода в Тарту (Эстония) (98 км)
Погода в Резекне (Латвия) (101 км)
Погода в Приекули (Латвия) (103 км)
Погода в Руйиене (Латвия) (111 км)

Пояснения к столбцам:

Ветер - указаны скорость ветра в м/с - средняя за 10 мин, порывы в срок и между сроками (в фигурных скобках) и направление, откуда дует ветер: С - северный, СВ - северо-восточный, В - восточный, ЮВ - юго-восточный, Ю - южный, ЮЗ - юго-западный, З - западный, СЗ - северо-западный.
Видимость - горизонтальная дальность видимости в метрах или километрах. При видимости от 1 до 10 км при отсутствии осадков обычно наблюдается дымка, при ухудшении видимости до 1 км и менее - туман. В сухую погоду видимость может ухудшаться дымом, пылью или мглою.
Явления - указаны атмосферные явления, наблюдавшиеся в срок или в последний час перед сроком; фигурными скобками обозначены явления, наблюдавшиеся между сроками (за 1-3 часа до срока); квадратными скобками обозначены град или гололедные отложения с указанием их диаметра в мм.
Облачность - указаны через наклонную черту общая и нижняя облачность в баллах и высота нижней границы облаков в метрах; квадратными скобками обозначены формы облаков: Ci - перистые, Cs - перисто-слоистые, Cc - перисто-кучевые, Ac - высококучевые, As - высокослоистые, Sc - слоисто-кучевые, Ns - слоисто-дождевые, Cu - кучевые, Cb - кучево-дождевые. Подробнее классификацию облаков см. в Атласе облаков (PDF).
T - Температура воздуха - температура, измеренная на высоте 2 м над землей.
Td - Температура точки росы - температура, при понижении до которой содержащийся в воздухе водяной пар достигнет насыщения.
f - Относительная влажность воздуха - влажноcть воздуха, измеренная на высоте 2 м над землей.
Te - Эффективная температура - температура, которую ощущает одетый по сезону человек в тени. Характеристика душности погоды. При расчете учитывается влияние влажности воздуха и скорости ветра на теплоощущения человека.
Tes - Эффективная температура на солнце - температура, которую ощущает человек, с поправкой на солнечный нагрев. Характеристика знойности погоды. Зависит от высоты солнца над горизонтом, облачности и скорости ветра. Ночью, в пасмурную погоду, а также при ветре 12 м/с и более поправка равна нулю.
P - Атмосферное давление - приведенное к уровню моря атмосферное давление.
Po - Атмосферное давление - измеренное на уровне метеостанции атмосферное давление.
Tmin - Минимальная температура - минимум температуры воздуха на высоте 2 м над землей.
Tmax - Максимальная температура - максимум температуры воздуха на высоте 2 м над землей.
R - Количество осадков - Количество выпавших осадков за период времени, мм. При наведении курсора мыши на число - период времени, за который выпало указанное количество осадков.
R24 - Количество осадков - Количество выпавших осадков за 24 часа, мм.
S - Снежный покров - Высота снежного покрова, см. При наведении курсора мыши на число - состояние снежного покрова и степень покрытия местности в баллах.